Change the Weather History Date:

Thursday, August 29, 2013

  Actual Average Record
Temperature  
Mean Temperature 76 °F -  
Max Temperature 91 °F 79 °F 94 °F (1953)
Min Temperature 62 °F 54 °F 32 °F (1965)
Cooling Degree Days 12    
Growing Degree Days 26 (Base 50)    
Moisture  
Dew Point 65 °F    
Average Humidity 77    
Maximum Humidity 100    
Minimum Humidity 44    
Precipitation  
Precipitation 0.00 in - - ()
Sea Level Pressure  
Sea Level Pressure 30.04 in    
Wind  
Wind Speed 2 mph (South)    
Max Wind Speed 10 mph    
Max Gust Speed -    
Visibility 6 miles    
Events Fog    
Averages and records for this station are not official NWS values.
T = Trace of Precipitation, MM = Missing Value Source: NWS Daily Summary

Daily Weather History Graph

Daily Weather History Graph

Search for Another Location

Airport or City:

Trip Planner

Search our weather history database for the weather conditions in past years. The results will help you decide how hot, cold, wet, or windy it might be!

Date:

Astronomy

Aug. 29, 2013 Rise Set
Actual Time 6:18 AM CDT 7:40 PM CDT
Civil Twilight 5:48 AM CDT 8:10 PM CDT
Nautical Twilight 5:12 AM CDT 8:46 PM CDT
Astronomical Twilight 4:33 AM CDT 9:25 PM CDT
Moon 12:03 AM CDT (8/29) 3:16 PM CDT (8/29)
Length of Visible Light 14h 21m
Length of Day
13h 21m
Last Quarter, 38% of the Moon is Illuminated
Aug 29
Last Quarter
Sep 5
New
Sep 12
First Quarter
Sep 19
Full
Sep 26
Last Quarter

Hourly Weather History & Observations

Time (CDT) Temp. Heat Index Dew Point Humidity Pressure Visibility Wind Dir Wind Speed Gust Speed Precip Events Conditions
12:54 AM 72.0 °F - 66.9 °F 84% 30.07 in 10.0 mi Calm Calm - N/A   Clear
1:54 AM 70.0 °F - 66.9 °F 90% 30.06 in 10.0 mi Calm Calm - N/A   Clear
2:54 AM 68.0 °F - 66.0 °F 93% 30.06 in 8.0 mi Calm Calm - N/A   Clear
3:49 AM 66.2 °F - 64.4 °F 94% 30.08 in 1.8 mi Calm Calm - N/A   Clear
3:54 AM 66.9 °F - 64.9 °F 93% 30.06 in 2.0 mi Calm Calm - N/A   Clear
4:02 AM 66.2 °F - 66.2 °F 100% 30.08 in 6.0 mi Calm Calm - N/A   Clear
4:54 AM 66.0 °F - 64.9 °F 96% 30.06 in 2.5 mi Calm Calm - N/A   Clear
5:03 AM 64.4 °F - 64.4 °F 100% 30.08 in 1.2 mi Calm Calm - N/A   Clear
5:09 AM 66.2 °F - 64.4 °F 94% 30.07 in 0.8 mi Calm Calm - N/A   Clear
5:26 AM 64.4 °F - 64.4 °F 100% 30.08 in 0.5 mi Calm Calm - N/A Fog Fog
5:54 AM 64.0 °F - 63.0 °F 96% 30.06 in 0.8 mi Calm Calm - N/A   Mist
6:08 AM 62.6 °F - 62.6 °F 100% 30.08 in 0.8 mi ESE 3.5 mph - N/A   Clear
6:10 AM 64.4 °F - 62.6 °F 94% 30.08 in 1.5 mi ESE 3.5 mph - N/A   Clear
6:19 AM 62.6 °F - 62.6 °F 100% 30.08 in 0.8 mi Calm Calm - N/A   Clear
6:39 AM 62.6 °F - 62.6 °F 100% 30.09 in 0.2 mi Calm Calm - N/A Fog Fog
6:44 AM 64.4 °F - 62.6 °F 94% 30.10 in 1.0 mi East 3.5 mph - N/A   Clear
6:46 AM 62.6 °F - 62.6 °F 100% 30.10 in 2.5 mi ENE 3.5 mph - N/A   Clear
6:54 AM 64.0 °F - 63.0 °F 96% 30.09 in 5.0 mi Calm Calm - N/A   Clear
7:54 AM 70.0 °F - 66.9 °F 90% 30.10 in 8.0 mi Calm Calm - N/A   Clear
8:54 AM 75.9 °F - 66.0 °F 71% 30.09 in 10.0 mi SSW 5.8 mph - N/A   Clear
9:54 AM 80.1 °F 81.9 °F 64.9 °F 60% 30.08 in 10.0 mi South 8.1 mph - N/A   Clear
10:54 AM 82.9 °F 84.6 °F 64.9 °F 54% 30.08 in 10.0 mi SW 10.4 mph - N/A   Clear
11:54 AM 84.9 °F 86.6 °F 64.9 °F 51% 30.06 in 10.0 mi SW 5.8 mph - N/A   Clear
12:54 PM 87.1 °F 88.3 °F 64.0 °F 46% 30.03 in 10.0 mi SSW 10.4 mph - N/A   Clear
1:54 PM 89.1 °F 91.3 °F 66.0 °F 46% 30.01 in 10.0 mi SSW 8.1 mph - N/A   Clear
2:54 PM 89.1 °F 91.3 °F 66.0 °F 46% 30.01 in 10.0 mi SSW 10.4 mph - N/A   Clear
3:54 PM 91.9 °F 95.4 °F 66.9 °F 44% 29.98 in 10.0 mi SSW 10.4 mph - N/A   Clear
4:54 PM 90.0 °F 94.5 °F 69.1 °F 50% 29.97 in 10.0 mi SSW 9.2 mph - N/A   Clear
5:54 PM 89.1 °F 94.1 °F 70.0 °F 53% 29.96 in 10.0 mi SSW 9.2 mph - N/A   Mostly Cloudy
6:54 PM 86.0 °F 90.7 °F 70.0 °F 59% 29.95 in 10.0 mi SSW 8.1 mph - N/A   Scattered Clouds
7:54 PM 82.9 °F 87.0 °F 70.0 °F 65% 29.95 in 10.0 mi SSE 3.5 mph - N/A   Clear
8:54 PM 81.0 °F 83.0 °F 66.0 °F 60% 29.96 in 10.0 mi SSE 4.6 mph - N/A   Mostly Cloudy
9:54 PM 80.1 °F 81.9 °F 64.9 °F 60% 29.96 in 10.0 mi South 6.9 mph - N/A   Overcast
10:54 PM 78.1 °F - 66.0 °F 66% 29.96 in 10.0 mi SSE 4.6 mph - N/A   Clear
11:54 PM 78.1 °F - 66.0 °F 66% 29.94 in 10.0 mi South 6.9 mph - N/A   Clear